CT1OY Oeiras PT current weather conditions

sailwx.info

Wind from 340

Air temperature 19.4° C
Dewpoint 14.9° C

Last reported at 2017-Jul-27 08:04 UTC.
Time now 2017-Jul-27 08:30 UTC

Location: N 38°44' W 009°17'.
View on Google Maps.

See reports from other nearby stations

  
Tides and Currents Weather Stations Pressure Air Temp Water Temp Dewpoint Dewpoint Depression Visibility Wind Speed Wind Dir Waves Ship Positions
date/time (UTC)wind fromknots sea level pressurealtimeterstation pressurevisibilityair tempwater tempwave heightnotes
2017-Jul-27 08:04 340 19.4
2017-Jul-27 07:54 015 18.9
2017-Jul-27 07:24 207 17.8
2017-Jul-27 07:14 265 4 gusting 15 17.8
2017-Jul-27 07:04 314 3 gusting 12 17.8
2017-Jul-27 06:54 235 9 gusting 13 17.2
2017-Jul-27 06:44 285 3 gusting 10 17.2
2017-Jul-27 06:34 018 3 gusting 11 17.2
2017-Jul-27 06:24 322 2 gusting 13 16.7
2017-Jul-27 06:14 274 5 gusting 10 16.7
2017-Jul-27 05:54 288 6 gusting 11 16.7
2017-Jul-27 05:44 249 4 gusting 11 16.7
2017-Jul-27 05:24 333 5 gusting 11 16.7
2017-Jul-27 05:04 271 6 gusting 16 16.7
2017-Jul-27 04:54 345 6 gusting 15 16.7
2017-Jul-27 04:44 314 6 gusting 13 16.7
2017-Jul-27 04:24 300 6 gusting 14 16.7
2017-Jul-27 04:14 311 13 gusting 16 16.7
2017-Jul-27 03:54 334 3 gusting 17 16.7
2017-Jul-27 03:44 032 7 gusting 13 16.7
2017-Jul-27 03:34 280 3 gusting 19 16.7
2017-Jul-27 03:14 278 5 gusting 16 16.7
2017-Jul-27 03:04 305 5 gusting 13 16.7
2017-Jul-27 02:54 297 2 gusting 13 16.7
2017-Jul-27 02:44 274 7 gusting 15 16.7
2017-Jul-27 02:34 268 3 gusting 14 16.7
2017-Jul-27 02:24 326 12 gusting 14 16.7
2017-Jul-27 02:14 271 16.7
2017-Jul-27 02:04 269 5 gusting 14 16.7
2017-Jul-27 01:54 280 16.7
2017-Jul-27 01:44 297 2 gusting 19 16.7
2017-Jul-27 01:34 329 8 gusting 13 17.2
2017-Jul-27 01:24 322 5 gusting 12 17.2
2017-Jul-27 01:14 013 17.2
2017-Jul-27 01:04 253 17.2
2017-Jul-27 00:54 297 4 gusting 13 17.2
2017-Jul-27 00:44 305 5 gusting 14 17.2
2017-Jul-27 00:24 268 5 gusting 16 17.8
2017-Jul-27 00:14 347 3 gusting 19 17.8
2017-Jul-27 00:04 287 16 gusting 18 17.8
2017-Jul-26 23:44 356 7 gusting 19 17.8
2017-Jul-26 23:24 327 7 gusting 16 17.8
2017-Jul-26 23:14 339 1 gusting 16 17.8
2017-Jul-26 23:04 271 10 gusting 14 17.8
2017-Jul-26 22:14 322 4 gusting 19 17.8
2017-Jul-26 21:54 317 6 gusting 14 18.3
2017-Jul-26 21:44 027 6 gusting 19 18.3
2017-Jul-26 21:34 284 10 gusting 17 18.3
2017-Jul-26 21:14 345 6 gusting 20 18.9
2017-Jul-26 21:04 297 3 gusting 17 18.9
2017-Jul-26 20:54 334 1 gusting 15 18.9
2017-Jul-26 20:44 297 18.9
2017-Jul-26 20:34 322 1 gusting 10 19.4
2017-Jul-26 20:14 005 3 gusting 13 20.0
2017-Jul-26 19:34 293 21.7
2017-Jul-26 19:24 303 3 gusting 10 22.2
2017-Jul-26 18:54 285 3 24.4
2017-Jul-26 18:44 326 0 gusting 10 25.6
2017-Jul-26 18:34 303 26.1
2017-Jul-26 18:14 295 3 gusting 10 26.1
2017-Jul-26 17:44 058 6 gusting 11 27.2
2017-Jul-26 17:14 310 28.3
2017-Jul-26 17:04 300 4 gusting 10 28.3
2017-Jul-26 16:44 271 1 gusting 14 28.9
2017-Jul-26 16:34 290 5 gusting 12 29.4
2017-Jul-26 16:14 297 6 gusting 13 29.4
2017-Jul-26 16:04 330 6 gusting 11 29.4
2017-Jul-26 15:04 035 28.9
2017-Jul-26 14:54 075 0 gusting 12 28.9
2017-Jul-26 14:44 360 8 gusting 12 28.9
2017-Jul-26 14:34 338 28.9
2017-Jul-26 13:04 015 1 28.9
2017-Jul-26 12:34 347 5 27.8
2017-Jul-26 12:24 301 5 27.8
2017-Jul-26 12:04 342 0 gusting 13 26.7
2017-Jul-26 11:14 295 25.6
2017-Jul-26 11:04 301 6 gusting 13 25.6
2017-Jul-26 10:54 314 10 gusting 17 25.0
2017-Jul-26 10:44 281 25.0
2017-Jul-26 09:44 007 0 gusting 17 22.8
2017-Jul-26 08:34 304 21.1
2017-Jul-26 08:14 321 2 gusting 13 20.0
2017-Jul-26 08:04 136 20.0
2017-Jul-26 07:54 048 19.4
2017-Jul-26 07:44 278 18.9
2017-Jul-26 07:24 344 0 gusting 14 18.3
2017-Jul-26 07:14 316 2 gusting 14 17.8
2017-Jul-26 06:34 304 9 gusting 13 17.2
2017-Jul-26 05:14 334 6 gusting 14 16.7
2017-Jul-26 05:04 331 7 gusting 13 16.7
2017-Jul-26 04:54 274 4 gusting 13 16.7
2017-Jul-26 04:14 283 4 gusting 13 17.2
2017-Jul-26 03:24 316 1 gusting 16 17.2
2017-Jul-26 02:44 293 2 gusting 15 17.2
2017-Jul-26 02:34 089 8 gusting 16 17.2
2017-Jul-26 02:24 319 5 gusting 19 17.2
2017-Jul-26 02:04 269 0 gusting 15 17.2
2017-Jul-26 01:54 022 2 gusting 13 17.2
2017-Jul-26 01:34 352 6 gusting 16 17.2
2017-Jul-26 01:14 314 3 gusting 14 17.2
2017-Jul-26 00:34 317 8 gusting 17 17.8
2017-Jul-26 00:24 267 11 gusting 15 17.8
2017-Jul-26 00:14 328 6 gusting 17 17.8
2017-Jul-25 23:44 271 8 gusting 13 17.8
2017-Jul-25 23:34 037 0 17.8
2017-Jul-25 23:04 332 0 gusting 13 18.3
2017-Jul-25 22:54 342 18.3
2017-Jul-25 22:34 262 0 gusting 14 18.3
2017-Jul-25 22:04 295 7 gusting 15 18.9
2017-Jul-25 21:44 110 1 gusting 15 18.9
2017-Jul-25 21:34 205 0 gusting 15 18.9
2017-Jul-25 21:24 287 6 gusting 18 19.4
2017-Jul-25 21:14 269 3 gusting 16 19.4
2017-Jul-25 20:54 278 2 gusting 22 20.0
2017-Jul-25 20:34 349 5 gusting 15 20.6
2017-Jul-25 20:24 044 6 gusting 17 20.6
2017-Jul-25 20:14 330 8 gusting 14 21.1
2017-Jul-25 20:04 307 6 gusting 13 21.1
2017-Jul-25 19:34 316 3 gusting 12 22.2
2017-Jul-25 19:24 303 22.8
2017-Jul-25 18:54 333 0 gusting 11 23.9
2017-Jul-25 18:24 319 6 gusting 14 24.4
2017-Jul-25 18:04 285 3 gusting 14 24.4
2017-Jul-25 17:54 264 2 gusting 17 24.4
2017-Jul-25 17:34 338 8 gusting 17 25.0
2017-Jul-25 17:04 302 25.6
2017-Jul-25 16:44 281 8 gusting 18 25.6
2017-Jul-25 16:14 286 6 gusting 19 26.1
2017-Jul-25 16:04 307 9 gusting 16 26.7
2017-Jul-25 15:54 241 4 gusting 16 26.7
2017-Jul-25 15:34 256 11 gusting 15 27.2
2017-Jul-25 14:44 277 2 gusting 15 27.8
2017-Jul-25 13:54 016 3 gusting 13 28.3
2017-Jul-25 13:04 298 28.3
2017-Jul-25 12:54 314 27.8
2017-Jul-25 12:44 301 27.8
2017-Jul-25 12:24 233 4 27.2
2017-Jul-25 11:54 290 26.1
2017-Jul-25 11:34 283 25.0
2017-Jul-25 11:24 006 5 gusting 11 25.0
2017-Jul-25 10:54 319 24.4
2017-Jul-25 10:44 330 23.9
2017-Jul-25 10:34 292 23.9
2017-Jul-25 10:04 308 23.3
2017-Jul-25 09:44 321 23.3
2017-Jul-25 09:14 292 22.2
2017-Jul-25 08:34 267 20.0
2017-Jul-25 08:14 304 2 19.4
2017-Jul-25 08:04 295 1 18.9